IRNSS-1A

Last updated on Jan. 15, 2021, 6:31 a.m. UTC

1 39199U 13034A   21014.76993622  .00000062  00000-0  00000+0 0  9991
2 39199  31.3007  93.4244 0022544 186.1055 167.0815  1.00274493 27799
UTC
Height (km)
Latitude
Longitude
Inclination
Orbital Period
UTC large
Height (km)
Speed (km/s)
/
Latitude / Longitude
Inclination (degrees)
Orbital Period (minutes)
Azimuth
Elevation
Range (km)
Doppler Factor
iOS Compass Heading
iOS Angle

Next 30 passes for location: Hong Kong

Rise time Rise Azimuth (degrees) Set time Set Azimuth (degrees) Duration Max altitude (degrees)

No matching passes for this satellites